Simultaneous Nadir Overpasses (SNOs) Predictions

Prediction of SNOs between AQUA and NOAA-19 Satellite Orbit:

Table of predicted SNOs for the next 14.0 days since TLE Epoch: 7/4/2014
Index Date (AQUA) Time (AQUA) Lat,Lon (AQUA) SZA (AQUA ) Date (NOAA-19) Time (NOAA-19) Lat,Lon (NOAA-19) SZA (NOAA-19 ) Distance(km) Time Diff (sec)
1 07/04/2014 20:29:00 77.07,-141.94 54.73 07/04/2014 20:27:59 77.06,-141.90 54.74 1.18 61
2 07/04/2014 21:18:11 -76.37, 28.15 126.10 07/04/2014 21:18:45 -76.37, 28.14 126.11 0.37 34
3 07/07/2014 02:02:35 -76.68, -43.96 125.52 07/07/2014 02:02:42 -76.68, -43.97 125.52 0.29 7
4 07/09/2014 06:46:56 -76.85,-115.65 125.06 07/09/2014 06:46:36 -76.85,-115.60 125.06 1.20 20
5 07/09/2014 07:36:09 76.17, 54.29 54.14 07/09/2014 07:37:21 76.17, 54.28 54.13 0.59 72
6 07/11/2014 11:31:20 -77.18, 172.07 124.38 07/11/2014 11:30:34 -77.19, 171.99 124.35 2.23 46
7 07/11/2014 12:20:32 76.46, -17.74 54.77 07/11/2014 12:21:17 76.47, -17.76 54.77 0.98 45
8 07/13/2014 16:15:39 -77.28, 100.58 123.94 07/13/2014 16:14:26 -77.28, 100.65 123.93 1.75 73
9 07/13/2014 17:04:54 76.72, -89.69 55.39 07/13/2014 17:05:12 76.72, -89.68 55.38 0.17 18
10 07/15/2014 21:49:14 76.89,-161.38 55.94 07/15/2014 21:49:05 76.88,-161.29 55.93 2.79 9
11 07/18/2014 02:33:36 77.17, 126.50 56.65 07/18/2014 02:33:01 77.17, 126.53 56.66 0.71 35




NCC Satellite Simultaneous Nadir Overpasses (SNOs) Prediction Service
